Location: Allen Lane School
(37.8198°N, 89.7382°W)
Time: 05:51:26
(UTC+00:00)

N. Korean satellite - Visible Passes

Search period start: 02 December 2022 00:00
Search period end: 12 December 2022 00:00
Orbit: 421 x 453 km, 97.3° (Epoch: 01 December)

Date Brightness Start Highest point End Pass type
(mag) Time Alt. Az. Time Alt. Az. Time Alt. Az.
02 Dec 7.1 11:03:18 10° NNE 11:06:39 54° E 11:09:57 10° S visible
02 Dec 8.7 23:03:20 10° SSW 23:06:19 30° W 23:09:20 10° NW visible
03 Dec 9.5 10:25:35 10° NE 10:27:41 15° E 10:29:46 10° SE visible
03 Dec 7.5 11:57:24 10° NNW 12:00:10 23° WNW 12:02:54 10° SW visible
04 Dec 6.2 11:18:03 10° N 11:21:28 88° WNW 11:24:49 10° SSW visible
04 Dec 9.5 23:18:41 10° SW 23:21:10 19° W 23:23:40 10° NW visible
05 Dec 8.8 10:39:42 10° NE 10:42:30 24° E 10:45:16 10° SSE visible
05 Dec 8.0 12:12:43 10° NNW 12:14:47 15° WNW 12:16:50 10° WSW visible
06 Dec 6.4 11:32:47 10° N 11:36:07 51° WNW 11:39:20 10° SSW visible
06 Dec 9.9 23:34:25 10° WSW 23:35:53 12° W 23:37:21 10° WNW visible
07 Dec 7.8 10:53:58 10° NNE 10:57:09 38° E 11:00:17 10° SSE visible
07 Dec 8.4 12:29:06 10° WNW 12:29:13 10° WNW 12:29:22 10° WNW visible
08 Dec 9.9 10:16:54 10° ENE 10:17:57 11° E 10:19:00 10° ESE visible
08 Dec 7.1 11:47:31 10° N 11:50:33 31° WNW 11:53:32 10° SW visible
09 Dec 6.7 11:08:16 10° NNE 11:11:37 64° E 11:14:54 10° S visible
09 Dec 9.0 23:08:18 10° SSW 23:11:11 26° W 23:14:06 10° NW visible
10 Dec 9.3 10:30:08 10° NE 10:32:26 17° E 10:34:42 10° SE visible
10 Dec 7.7 12:02:17 10° NNW 12:04:50 20° WNW 12:07:22 10° WSW visible
11 Dec 6.2 11:22:34 10° N 11:25:55 76° WNW 11:29:12 10° SSW visible
11 Dec 9.6 23:23:14 10° SW 23:25:32 17° W 23:27:51 10° NW visible
